DW6747 Weather Reports


time (UTC)temp
C
wind
direction
speed
KPH
gust
KPH
rain 1hr
cm
rain 24hr
cm
rain mn
cm
humidity
%
barometer
mb
20260505100440 15 146 0.0 4.8 0.00 0.00 0.00 63 1011.8
20260505095500 14 146 0.0 6.4 0.00 0.00 0.00 64 1011.7
20260505094457 14 119 0.0 6.4 0.00 0.00 0.00 63 1011.6
20260505093515 14 117 0.0 1.6 0.00 0.00 0.00 65 1011.6
20260505091347 15 133 0.0 8.0 0.00 0.00 0.00 63 1011.5
20260505090327 15 163 0.0 8.0 0.00 0.00 0.00 62 1011.6
20260505085352 15 161 0.0 6.4 0.00 0.00 0.00 61 1011.7
20260505084327 15 121 0.0 0.0 0.00 0.00 0.00 61 1011.6
20260505083347 15 146 0.0 6.4 0.00 0.00 0.00 59 1011.5
20260505082344 15 145 0.0 4.8 0.00 0.00 0.00 59 1011.5
20260505081404 15 171 0.0 11.3 0.00 0.00 0.00 59 1011.6
20260505080414 15 134 0.0 11.3 0.00 0.00 0.00 58 1011.5
20260505075432 15 123 0.0 4.8 0.00 0.00 0.00 58 1011.5
20260505074407 16 148 1.6 9.7 0.00 0.00 0.00 57 1011.5
20260505073351 16 141 1.6 12.9 0.00 0.00 0.00 56 1011.4
20260505071233 16 150 1.6 11.3 0.00 0.00 0.00 57 1011.4
20260505070208 15 146 1.6 6.4 0.00 0.00 0.00 61 1011.3
20260505065200 15 145 1.6 6.4 0.00 0.00 0.00 62 1011.2
20260505063005 15 149 0.0 4.8 0.00 0.00 0.00 63 1011.2
20260505061934 15 132 0.0 3.2 0.00 0.00 0.00 61 1011.2
20260505060955 15 119 0.0 0.0 0.00 0.00 0.00 61 1011.3
20260505060002 15 128 0.0 1.6 0.00 0.00 0.00 60 1011.3
20260505054931 15 146 0.0 3.2 0.00 0.00 0.00 60 1011.4
20260505053901 16 130 0.0 0.0 0.00 0.00 0.00 59 1011.4
20260505051807 16 152 0.0 0.0 0.00 0.00 0.00 57 1011.4
20260505050735 16 161 0.0 3.2 0.00 0.00 0.00 56 1011.5
20260505041725 16 128 0.0 0.0 0.00 0.00 0.00 57 1011.4
20260505040702 16 42 0.0 0.0 0.00 0.00 0.00 57 1011.4
20260505034515 16 126 0.0 0.0 0.00 0.00 0.00 57 1011.4
20260505031321 17 128 0.0 0.0 0.00 0.00 0.00 54 1011.2
20260505030252 17 135 0.0 0.0 0.00 0.00 0.00 52 1011.1
20260505024133 17 155 0.0 4.8 0.00 0.00 0.00 54 1011.2
20260505023111 17 148 0.0 0.0 0.00 0.00 0.00 51 1011.1
20260505015940 17 111 0.0 0.0 0.00 0.00 0.00 52 1011.1
20260505014945 17 103 0.0 0.0 0.00 0.00 0.00 50 1011.1
20260505013939 17 115 0.0 0.0 0.00 0.00 0.00 50 1010.9
20260505012908 17 265 0.0 3.2 0.00 0.00 0.00 55 1010.6
20260505011850 18 111 0.0 0.0 0.00 0.00 0.00 47 1010.7
20260505005750 18 184 0.0 0.0 0.00 0.00 0.00 45 1010.6
20260505004751 19 185 0.0 0.0 0.00 0.00 0.00 44 1010.6
20260505003732 20 213 0.0 0.0 0.00 0.00 0.00 41 1010.5
20260505000416 21 136 0.0 14.5 0.00 0.00 0.00 39 1010.4
20260504235406 21 140 0.0 14.5 0.00 0.00 0.00 39 1010.3
20260504233326 21 140 0.0 9.7 0.00 0.00 0.00 38 1010.3
20260504232325 21 167 1.6 11.3 0.00 0.00 0.00 37 1010.2
20260504230251 22 107 1.6 16.1 0.00 0.00 0.00 35 1010.3
20260504225236 22 163 4.8 25.7 0.00 0.00 0.00 34 1010.3
20260504223127 22 190 0.0 20.9 0.00 0.00 0.00 36 1010.0
20260504222141 22 161 3.2 20.9 0.00 0.00 0.00 34 1010.0
20260504221140 22 163 3.2 16.1 0.00 0.00 0.00 33 1010.1
20260504220155 22 170 1.6 16.1 0.00 0.00 0.00 33 1010.1
20260504215153 22 134 1.6 16.1 0.00 0.00 0.00 33 1010.1
20260504214208 23 189 3.2 16.1 0.00 0.00 0.00 32 1010.1
20260504213207 23 144 3.2 16.1 0.00 0.00 0.00 32 1010.1
20260504212224 23 71 1.6 12.9 0.00 0.00 0.00 34 1010.2
20260504211237 23 82 1.6 9.7 0.00 0.00 0.00 32 1010.3
20260504210255 23 148 0.0 8.0 0.00 0.00 0.00 34 1010.2
20260504205244 23 109 1.6 11.3 0.00 0.00 0.00 34 1010.3
20260504203058 23 34 0.0 1.6 0.00 0.00 0.00 36 1010.5
20260504200904 23 237 1.6 17.7 0.00 0.00 0.00 31 1010.6
20260504195842 23 194 4.8 17.7 0.00 0.00 0.00 31 1010.8
20260504194813 23 238 1.6 11.3 0.00 0.00 0.00 34 1010.9
20260504193811 23 230 1.6 14.5 0.00 0.00 0.00 34 1011.2
20260504191705 23 163 1.6 14.5 0.00 0.00 0.00 31 1011.6
20260504190645 23 147 1.6 16.1 0.00 0.00 0.00 31 1011.7
20260504185638 23 242 1.6 19.3 0.00 0.00 0.00 33 1011.9
20260504184625 23 122 1.6 19.3 0.00 0.00 0.00 32 1012.0
20260504183644 23 344 1.6 12.9 0.00 0.00 0.00 35 1012.2
20260504182706 23 315 1.6 12.9 0.00 0.00 0.00 32 1012.4
20260504181640 22 113 1.6 14.5 0.00 0.00 0.00 32 1012.4
20260504175509 22 252 1.6 14.5 0.00 0.00 0.00 31 1012.8
20260504174514 21 101 1.6 14.5 0.00 0.00 0.00 31 1013.0
20260504173452 22 161 0.0 1.6 0.00 0.00 0.00 31 1013.0
20260504172512 21 153 1.6 12.9 0.00 0.00 0.00 31 1013.2
20260504170251 21 170 1.6 6.4 0.00 0.00 0.00 34 1013.6
20260504160228 19 158 3.2 17.7 0.00 0.00 0.00 34 1014.3
20260504150845 18 215 0.0 6.4 0.00 0.00 0.00 37 1014.9
20260504140717 15 107 1.6 9.7 0.00 0.00 0.00 45 1015.1
20260504110234 6 0 0.0 0.0 0.00 0.00 0.00 84 1016.1